Active Users

240 users in the last day have played 106787 games
User Games / Day Version Engine Last Updated
qwerty098 12278 10 10 2018-06-22 12:56:38.889985 -0400 EDT
ianh2105 5940 10 10 2018-06-22 12:56:40.463871 -0400 EDT
kontrachess 4095 10 10 2018-06-22 12:56:38.163618 -0400 EDT
Google Colab 3426 10 10 2018-06-22 12:56:43.899979 -0400 EDT
Temp 3367 10 10 2018-06-22 12:53:58.436115 -0400 EDT
gyathaar 2955 10 10 2018-06-22 12:56:09.573878 -0400 EDT
dje 2932 10 10 2018-06-22 12:56:32.522009 -0400 EDT
shellster 2844 10 10 2018-06-22 12:56:19.579793 -0400 EDT
mistermister 2517 10 10 2018-06-22 12:55:13.045468 -0400 EDT
mkh 1828 10 10 2018-06-22 12:56:15.758847 -0400 EDT
xicesky 1600 10 10 2018-06-22 12:55:33.078161 -0400 EDT
PiRho 1537 10 10 2018-06-22 12:56:36.857408 -0400 EDT
UglyDuckling 1503 10 10 2018-06-22 12:56:26.074868 -0400 EDT
dmir 1276 10 10 2018-06-22 11:08:41.246017 -0400 EDT
Wil54 1111 10 10 2018-06-22 10:23:57.735281 -0400 EDT
RonMcChess 1023 10 10 2018-06-22 12:51:53.391341 -0400 EDT
Guy Smiley 1001 10 10 2018-06-22 12:55:50.014612 -0400 EDT
pwa128 989 10 10 2018-06-22 12:55:24.097301 -0400 EDT
Galaga 966 10 10 2018-06-22 12:56:35.053318 -0400 EDT
amjsh 963 10 10 2018-06-22 12:56:19.879152 -0400 EDT
atraxazero1 953 10 10 2018-06-22 12:55:20.204067 -0400 EDT
Taras 952 10 10 2018-06-22 12:55:59.431172 -0400 EDT
alonamaloh 939 10 10 2018-06-22 12:54:42.445111 -0400 EDT
nousiantestgpu91 923 10 10 2018-06-22 12:55:06.033485 -0400 EDT
mikael-s-persson 923 10 10 2018-06-22 12:55:53.568966 -0400 EDT
Masterplan 862 10 10 2018-06-22 12:32:11.444551 -0400 EDT
JustinZed 861 10 10 2018-06-22 12:55:43.221971 -0400 EDT
mcardillo55 848 10 10 2018-06-22 12:55:52.680423 -0400 EDT
PaleMale3 819 10 10 2018-06-22 12:53:52.210311 -0400 EDT
dendrobate 771 10 10 2018-06-22 12:55:53.744259 -0400 EDT
KillerDucky 739 10 10 2018-06-22 12:55:37.501652 -0400 EDT
kwen 723 10 10 2018-06-22 12:56:17.00003 -0400 EDT
Wak017 711 10 10 2018-06-22 12:55:22.879303 -0400 EDT
jorditg 709 10 10 2018-06-22 00:50:14.974059 -0400 EDT
🚽🚽 töpfchen 2.0 🚽🚽 705 10 10 2018-06-22 12:55:47.921359 -0400 EDT
gtarkin 650 10 10 2018-06-22 12:53:25.908711 -0400 EDT
tomtor 650 10 10 2018-06-22 12:54:19.584053 -0400 EDT
Spprtr 645 10 10 2018-06-22 11:09:09.790299 -0400 EDT
Zadius 645 10 10 2018-06-22 12:56:13.02363 -0400 EDT
benpaulthurston 644 10 10 2018-06-22 12:53:56.602989 -0400 EDT
solarlight 641 10 10 2018-06-22 12:54:21.373083 -0400 EDT
wakamex 635 10 10 2018-06-22 12:55:50.730635 -0400 EDT
Cyanogenoid 630 10 10 2018-06-22 12:56:36.872106 -0400 EDT
tbischel 620 10 10 2018-06-22 12:55:55.002817 -0400 EDT
www.lucidmotors.com 618 10 10 2018-06-22 12:54:33.624124 -0400 EDT
Hans_Ekbrand 614 10 10 2018-06-22 12:55:13.656268 -0400 EDT
ArtesMagae 609 10 10 2018-06-22 12:51:38.807953 -0400 EDT
dedmonds 589 10 10 2018-06-22 12:56:33.712679 -0400 EDT
glitzerpony 589 10 10 2018-06-22 12:42:10.437462 -0400 EDT
ioihakan 566 10 10 2018-06-22 12:55:47.009997 -0400 EDT
Chakravartim 549 10 10 2018-06-22 12:55:01.823634 -0400 EDT
ricksant2003 549 10 10 2018-06-22 12:54:00.899001 -0400 EDT
ElmoH59 547 10 10 2018-06-22 12:46:55.74674 -0400 EDT
nicof2 539 10 10 2018-06-22 10:41:36.471571 -0400 EDT
RageAlone 525 10 10 2018-06-22 12:56:29.892078 -0400 EDT
Insertcleverphrasehere 501 10 10 2018-06-22 12:55:47.788107 -0400 EDT
RICHARDTHULSTRUP 499 10 10 2018-06-22 12:56:24.417622 -0400 EDT
cyskus 487 10 10 2018-06-22 12:56:36.415006 -0400 EDT
sP4ZoR4Ma 451 10 10 2018-06-22 12:56:15.408069 -0400 EDT
amicic 442 10 10 2018-06-22 12:52:52.867405 -0400 EDT
Colab vn 441 10 10 2018-06-22 12:54:50.291392 -0400 EDT
tobi 398 10 10 2018-06-22 12:56:44.522668 -0400 EDT
glenr 397 10 10 2018-06-21 22:09:38.534013 -0400 EDT
Google Colab (nszhang) 397 10 10 2018-06-22 12:55:08.113541 -0400 EDT
Plirbo 375 10 10 2018-06-22 12:56:42.749753 -0400 EDT
Arquiteto 368 10 10 2018-06-22 12:56:01.201107 -0400 EDT
mschmidt 352 10 10 2018-06-22 12:56:44.056164 -0400 EDT
Tonín 347 10 10 2018-06-22 12:53:16.268231 -0400 EDT
Basshound 345 10 10 2018-06-22 12:55:58.728527 -0400 EDT
rebelhouse 341 10 10 2018-06-22 12:55:51.875607 -0400 EDT
Eneyda 336 10 10 2018-06-22 02:12:30.294454 -0400 EDT
desperadoduck 335 10 10 2018-06-22 02:38:50.904074 -0400 EDT
heyholetsgo 333 10 10 2018-06-22 05:58:01.359327 -0400 EDT
romain 330 10 10 2018-06-22 02:21:16.820923 -0400 EDT
jps 329 10 10 2018-06-22 12:53:07.756407 -0400 EDT
Wrandom 329 10 10 2018-06-22 04:11:13.070152 -0400 EDT
franzgi 327 10 10 2018-06-22 12:56:03.882233 -0400 EDT
Aleander 327 10 10 2018-06-22 04:05:38.532805 -0400 EDT
playlaughlovelearn 326 10 10 2018-06-22 07:27:12.415345 -0400 EDT
rlchess 323 10 10 2018-06-22 12:55:31.391861 -0400 EDT
CoreProCapital 321 10 10 2018-06-22 07:37:24.085606 -0400 EDT
jurotek 317 10 10 2018-06-22 12:56:38.769703 -0400 EDT
PawnFlipper 316 10 10 2018-06-22 04:42:14.788614 -0400 EDT
Flopzee 315 10 10 2018-06-22 07:53:12.700772 -0400 EDT
jbaker8935 307 10 10 2018-06-22 10:35:17.794489 -0400 EDT
MrElk 306 10 10 2018-06-22 12:55:55.169009 -0400 EDT
edoublel 301 10 10 2018-06-22 12:56:04.154799 -0400 EDT
rosariiio18 292 10 10 2018-06-22 12:55:23.563273 -0400 EDT
BdG 288 10 10 2018-06-22 12:54:17.454847 -0400 EDT
yournick 287 10 10 2018-06-22 12:56:27.228377 -0400 EDT
gunnar 274 10 10 2018-06-21 22:08:41.872865 -0400 EDT
koffiedrab 274 10 10 2018-06-22 10:25:22.774648 -0400 EDT
Noon 273 10 10 2018-06-22 01:38:24.597305 -0400 EDT
melco 272 10 10 2018-06-22 11:33:10.226411 -0400 EDT
manelakos 272 10 10 2018-06-22 12:55:42.808888 -0400 EDT
floww 264 10 10 2018-06-22 12:52:09.677791 -0400 EDT
chesspjn 259 10 10 2018-06-22 12:55:05.587818 -0400 EDT
oberdir 255 10 10 2018-06-21 22:42:18.878099 -0400 EDT
kgaurav 251 10 10 2018-06-22 08:34:19.060515 -0400 EDT
nameBrandon 248 10 10 2018-06-21 20:33:07.880027 -0400 EDT
bluefedora 247 10 10 2018-06-22 12:55:22.312492 -0400 EDT
Thomas A. Anderson 247 10 10 2018-06-22 11:49:28.252374 -0400 EDT
laudic 247 10 10 2018-06-22 12:53:35.331945 -0400 EDT
drspod 240 10 10 2018-06-21 14:54:15.044695 -0400 EDT
Bryan_LC0 239 10 10 2018-06-22 12:49:13.159363 -0400 EDT
Henchman47 235 10 10 2018-06-22 12:51:53.660996 -0400 EDT
srt19170 230 10 10 2018-06-22 12:50:14.559109 -0400 EDT
gokiburi 228 10 10 2018-06-22 12:41:12.647842 -0400 EDT
MathAndy 227 10 10 2018-06-22 11:01:18.070979 -0400 EDT
M_Roscoe 227 10 10 2018-06-22 12:55:39.482296 -0400 EDT
forked 226 10 10 2018-06-22 12:55:12.968842 -0400 EDT
semeah 224 10 10 2018-06-22 12:56:23.763821 -0400 EDT
Olli 212 10 10 2018-06-21 20:25:02.290581 -0400 EDT
dew 208 10 10 2018-06-22 05:57:47.58574 -0400 EDT
darkwanderer 206 10 10 2018-06-22 12:52:15.766546 -0400 EDT
javiros 204 10 10 2018-06-22 12:52:37.359529 -0400 EDT
DarkNite 202 10 10 2018-06-22 12:55:43.647872 -0400 EDT
anonymousColab 202 10 10 2018-06-22 12:55:09.53946 -0400 EDT
LEW111 202 10 10 2018-06-22 12:56:17.249141 -0400 EDT
Deathwolf 196 10 10 2018-06-22 12:53:31.486926 -0400 EDT
vu 194 10 10 2018-06-22 12:54:32.442268 -0400 EDT
derekvneal 193 10 10 2018-06-21 22:03:15.280057 -0400 EDT
apekatt2 191 10 10 2018-06-22 12:53:32.774371 -0400 EDT
Janxi 191 10 10 2018-06-22 10:51:32.483193 -0400 EDT
thethee 185 10 10 2018-06-22 12:53:35.321949 -0400 EDT
TilmannSpiegelhauer 185 10 10 2018-06-22 12:54:09.683034 -0400 EDT
Luis 176 10 10 2018-06-22 11:00:59.124231 -0400 EDT
rogue_coder 173 10 10 2018-06-22 12:35:34.29437 -0400 EDT
MrWizard 170 10 10 2018-06-22 12:56:03.067927 -0400 EDT
Salminger 167 10 10 2018-06-22 09:18:10.959699 -0400 EDT
pacmac 162 10 10 2018-06-22 09:20:39.764202 -0400 EDT
Some Generic User 159 10 10 2018-06-22 05:10:02.798887 -0400 EDT
eddy 157 10 10 2018-06-22 12:52:25.282802 -0400 EDT
kaojo 153 10 10 2018-06-22 10:27:12.42204 -0400 EDT
LEELA THE CHESS SEX SYMBOL 151 10 10 2018-06-21 18:02:08.046422 -0400 EDT
hctr2004 149 10 10 2018-06-22 02:19:45.311094 -0400 EDT
anderle.org 143 10 10 2018-06-22 12:51:58.563273 -0400 EDT
Caturman 141 10 10 2018-06-22 12:38:06.6378 -0400 EDT
Cascade 141 10 10 2018-06-22 12:45:17.935111 -0400 EDT
nicof 140 10 10 2018-06-22 12:56:14.113435 -0400 EDT
LEELA I WANT 2 DATE U 139 10 10 2018-06-22 12:54:57.64405 -0400 EDT
PeteyPabPro 135 10 10 2018-06-22 12:52:56.937228 -0400 EDT
jason2 135 10 10 2018-06-22 12:42:59.354001 -0400 EDT
Smurfie 130 10 10 2018-06-22 12:55:00.349163 -0400 EDT
zz4032 127 10 10 2018-06-21 23:53:11.285739 -0400 EDT
Ettrig 126 10 10 2018-06-21 17:30:15.388622 -0400 EDT
ntando 125 10 10 2018-06-22 09:55:34.86298 -0400 EDT
hanan 124 10 10 2018-06-22 12:50:31.428175 -0400 EDT
eatherquake 122 10 10 2018-06-22 12:56:20.446842 -0400 EDT
8 122 10 10 2018-06-22 09:13:48.790158 -0400 EDT
jibi3 120 10 10 2018-06-21 16:34:22.438812 -0400 EDT
kkirson 115 10 10 2018-06-22 06:18:14.839237 -0400 EDT
nevermind314 114 10 10 2018-06-22 07:15:45.897923 -0400 EDT
Bean 112 10 10 2018-06-22 12:53:53.074993 -0400 EDT
DidzisC 106 10 10 2018-06-22 05:46:13.396734 -0400 EDT
sparky8342 103 10 10 2018-06-22 06:27:22.884873 -0400 EDT
anst 98 10 10 2018-06-22 12:53:07.270038 -0400 EDT
blin00 98 10 10 2018-06-22 12:53:46.443385 -0400 EDT
TutterFar 98 10 10 2018-06-22 12:35:55.490336 -0400 EDT
kk2796 96 10 10 2018-06-22 03:32:32.693118 -0400 EDT
noeblassel 94 10 10 2018-06-22 12:15:12.521829 -0400 EDT
ben25 93 10 10 2018-06-21 17:56:16.663248 -0400 EDT
mghens 89 10 10 2018-06-22 02:11:47.658254 -0400 EDT
ali 88 10 10 2018-06-22 12:53:54.17476 -0400 EDT
j 88 10 10 2018-06-22 12:56:40.409571 -0400 EDT
x6 81 10 10 2018-06-21 15:12:03.624485 -0400 EDT
anhhuyalex 80 10 10 2018-06-22 06:06:57.674325 -0400 EDT
VladimirMK 78 10 10 2018-06-22 12:55:28.479488 -0400 EDT
nousiantestcpu91 75 10 10 2018-06-22 12:40:16.50502 -0400 EDT
aggg63 74 10 10 2018-06-22 12:22:21.990478 -0400 EDT
dstark 72 10 10 2018-06-22 11:07:22.435502 -0400 EDT
Kasuha 71 10 10 2018-06-22 12:55:11.243595 -0400 EDT
YogiBear 70 10 10 2018-06-22 12:26:12.872937 -0400 EDT
rcostheta 70 10 10 2018-06-22 12:33:23.35143 -0400 EDT
Rein5975 69 10 10 2018-06-22 12:54:02.320475 -0400 EDT
Guacharacas 68 10 10 2018-06-22 12:51:01.389386 -0400 EDT
Future Crayon 66 10 10 2018-06-22 12:56:00.708499 -0400 EDT
Rubinus 66 10 10 2018-06-22 10:47:05.720755 -0400 EDT
masrique 61 10 10 2018-06-22 11:58:53.203032 -0400 EDT
bidiroc 61 10 10 2018-06-22 08:10:35.09917 -0400 EDT
TripleAttack1 61 10 10 2018-06-22 12:45:41.226382 -0400 EDT
Kressmark 58 10 10 2018-06-22 06:56:46.682431 -0400 EDT
liweimiao 52 10 10 2018-06-22 10:35:28.520862 -0400 EDT
Intence 51 10 10 2018-06-22 11:34:17.631427 -0400 EDT
Djuffin 50 10 10 2018-06-22 04:12:22.50045 -0400 EDT
Twirrim 47 10 10 2018-06-22 12:23:49.693335 -0400 EDT
penguinov 46 10 10 2018-06-22 12:49:19.909139 -0400 EDT
kony 45 10 10 2018-06-22 11:47:35.992525 -0400 EDT
alexlk 45 10 10 2018-06-22 12:46:24.881231 -0400 EDT
lain 45 10 10 2018-06-22 12:55:34.200557 -0400 EDT
alvaroi 43 10 10 2018-06-22 12:54:06.603102 -0400 EDT
uci 41 10 10 2018-06-21 16:16:03.720501 -0400 EDT
s2dbaker 40 10 10 2018-06-22 12:15:35.075786 -0400 EDT
worm 40 10 10 2018-06-22 12:19:33.168199 -0400 EDT
CJCPD 40 10 10 2018-06-22 07:41:08.097185 -0400 EDT
fractalised 39 10 10 2018-06-22 12:54:46.290636 -0400 EDT
MTGOStark 36 10 10 2018-06-21 14:08:59.193225 -0400 EDT
FreedomKnight 33 10 10 2018-06-22 12:35:44.141466 -0400 EDT
moliarti 32 10 10 2018-06-22 00:11:38.101578 -0400 EDT
tc4 32 10 10 2018-06-22 12:39:22.990618 -0400 EDT
rogercalhoun 31 10 10 2018-06-22 12:17:13.035367 -0400 EDT
jolovi 29 10 10 2018-06-22 12:23:39.480313 -0400 EDT
jzupanic 28 10 10 2018-06-22 12:18:47.509538 -0400 EDT
Ilis 27 10 10 2018-06-22 12:44:13.894573 -0400 EDT
dreak 25 10 10 2018-06-21 17:09:16.986262 -0400 EDT
esparano 23 10 10 2018-06-21 13:41:10.090598 -0400 EDT
jostsalathe 22 10 10 2018-06-22 11:23:21.294357 -0400 EDT
jtsbad 22 10 10 2018-06-22 12:45:04.70936 -0400 EDT
Nelagend 21 10 10 2018-06-21 16:08:30.511095 -0400 EDT
jk_182 21 10 10 2018-06-22 06:48:11.075536 -0400 EDT
Sergey1983 19 10 10 2018-06-22 10:16:51.125634 -0400 EDT
tooangel 19 10 10 2018-06-22 11:30:17.773303 -0400 EDT
mblakely 17 10 10 2018-06-22 10:19:05.344609 -0400 EDT
mike1927 17 10 10 2018-06-22 12:51:39.186694 -0400 EDT
nicof92 17 10 10 2018-06-22 11:56:14.793086 -0400 EDT
Berlinjada 16 10 10 2018-06-22 03:34:27.654323 -0400 EDT
petsie 14 10 10 2018-06-22 12:33:54.803238 -0400 EDT
rfrisch 13 10 10 2018-06-22 04:22:53.203168 -0400 EDT
gamitech 13 10 10 2018-06-22 12:52:54.500545 -0400 EDT
jeanscherf 12 10 10 2018-06-22 06:42:16.646959 -0400 EDT
bemweeks1 11 10 10 2018-06-22 12:20:12.731593 -0400 EDT
CBVB 11 10 10 2018-06-22 12:54:49.334827 -0400 EDT
shane31 9 10 10 2018-06-22 06:57:13.34929 -0400 EDT
hxim 7 10 10 2018-06-21 13:17:11.208168 -0400 EDT
wwa 7 10 10 2018-06-21 18:55:53.946334 -0400 EDT
xppawn01 7 10 10 2018-06-21 23:45:07.466799 -0400 EDT
fantastick 7 10 10 2018-06-22 00:33:24.694008 -0400 EDT
maximiliano1 6 10 10 2018-06-22 12:30:16.594807 -0400 EDT
fastgm 5 10 10 2018-06-22 12:55:13.833205 -0400 EDT
AlphaNeko 5 10 10 2018-06-22 12:28:03.77314 -0400 EDT
g1959 5 10 10 2018-06-22 08:37:42.877223 -0400 EDT
epanek 4 10 10 2018-06-21 15:16:55.788178 -0400 EDT
elriese 4 10 10 2018-06-22 08:46:08.04942 -0400 EDT
tih 4 10 10 2018-06-21 15:44:54.115157 -0400 EDT
Fran64 3 10 10 2018-06-21 20:25:56.575314 -0400 EDT
brad 3 10 10 2018-06-22 07:05:54.939112 -0400 EDT
roderich 3 10 10 2018-06-22 02:55:53.481243 -0400 EDT
John_Doe 2 10 10 2018-06-22 00:47:28.212935 -0400 EDT
akseli1729 1 10 10 2018-06-22 11:59:54.263932 -0400 EDT
AdD 1 10 10 2018-06-22 10:53:39.71226 -0400 EDT